Other Surface Observations
Issued by NWS Charleston, SC

Home | Current Version | Previous Version | Text Only | Print | Product List | Glossary On
Versions: 1 2 3 4 5 6 7 8 9 10 11 12 13 14 15 16 17 18 19 20 21 22 23 24 25 26 27 28 29 30 31 32 33 34 35 36 37 38 39 40 41 42 43 44 45 46 47 48 49 50
000
SXUS52 KCHS 290025
OSOCHS

MARINE OBSERVATIONS
NATIONAL WEATHER SERVICE CHARLESTON SC
800 PM EDT MON JUL 28 2014

...DOWNTOWN CHARLESTON AND HARBOR...

CITY           SKY/WX    TMP DP  RH WIND       PRES   REMARKS
WATERFRONT PRK   N/A     90 N/A N/A SW7         N/A
FORT JOHNSON   NOT AVBL

...LAKE MOULTRIE...

CITY           SKY/WX    TMP DP  RH WIND       PRES   REMARKS
PINOPOLIS        N/A     90  75  62 W9        29.73R HX 100

...LAKE AND SUPPLEMENTAL COASTAL OBSERVATIONS...

STATION/POSITION TIME  TEMP    WIND        PRES    WAVE   SWELL
                       AIR SEA DIR/SP/G            HT/PER HT/PER/DIR
                 (UTC) (F)     (DEG/KT/KT) (MB)    (FT/S) (FT/S/D)
FORT PULASKI     0000   87      CALM  /  1 1010.4F
SAPELO ISLAND    0000   91     240/  7     1012.0R
UPR LAKE MARION  NOT AVBL
WINYAH BAY       0000   87     210/  8     1008.0S
LAKE MURRAY      2300   91     290/  7/ 12 1008.5R
ACE BASIN NERRS  0000   85        CALM     1010.0S


...C-MAN AND BUOY OBSERVATIONS...

STATION/POSITION TIME  TEMP    WIND        PRES    WAVE   SWELL
                       AIR SEA DIR/SP/G            HT/PER HT/PER/DIR
                 (UTC) (F)     (DEG/KT/KT) (MB)    (FT/S) (FT/S/D)
BUOY 41004       0000   85 84  210/ 19/ 23 1008.2R   5/ 6   2/ 9
BUOY 41008       0000   87 85  210/ 12/ 14 1010.4R   2/ 3   2/100/ 9
FOLLY BEACH CMAN 0000   87     220/ 14/ 15 1009.8R
CAPERS NS BUOY   2300   86     360/ 16/ 19   N/A
FRIPP NS BUOY    NOT AVBL
5E ST. MARYS GA  0000      85                N/A     2/ 9
FRYING PAN BUOY  NOT AVBL
BUOY 41025       0000          VRB 12/ 16  1008.7R   4/ 8   3/150/ 8
CAPE LOOKOUT NC  0000   72     300/  3/  4 1009.4F
BUOY 41002       NOT AVBL
BUOY 41010       0000   84 84  200/ 14/ 17 1014.5F   3/ 6   2/140/ 8
BUOY 41012       NOT AVBL
ST AUGUSTINE FL  0000   82     220/  6/  7 1013.8R


$$



USA.gov is the U.S. government's official web portal to all federal, state and local government web resources and services.